Time,TemperatureF,DewpointF,PressureIn,WindDirection,WindDirectionDegrees,WindSpeedMPH,WindSpeedGustMPH,Humidity,HourlyPrecipIn,Conditions,Clouds,dailyrainin,SoftwareType,DateUTC
2013-08-12 00:00:00,66.4,60.1,30.06,SSE,157,0.0,0.0,80,0.00,,,-99.99,open2300 version1.11,2013-08-12 04:00:00,
2013-08-12 00:05:00,66.4,60.1,30.06,SSE,157,0.0,0.0,80,0.00,,,-99.99,open2300 version1.11,2013-08-12 04:05:00,
2013-08-12 00:10:00,66.2,60.2,30.06,SSE,157,0.0,0.0,81,0.00,,,-99.99,open2300 version1.11,2013-08-12 04:10:00,
2013-08-12 00:15:00,66.2,60.2,30.06,SSE,157,0.0,0.0,81,0.00,,,-99.99,open2300 version1.11,2013-08-12 04:15:00,
2013-08-12 00:20:00,66.0,60.0,30.06,SSE,157,0.0,0.0,81,0.00,,,-99.99,open2300 version1.11,2013-08-12 04:20:00,
2013-08-12 00:25:00,66.0,60.0,30.06,SSE,157,0.0,0.0,81,0.00,,,-99.99,open2300 version1.11,2013-08-12 04:25:00,
2013-08-12 00:30:00,66.2,60.2,30.06,SSE,157,0.0,0.0,81,0.00,,,-99.99,open2300 version1.11,2013-08-12 04:30:00,
2013-08-12 00:35:00,66.0,60.0,30.06,SSE,157,0.0,0.0,81,0.00,,,-99.99,open2300 version1.11,2013-08-12 04:35:00,
2013-08-12 00:40:00,66.0,60.0,30.06,SSE,157,0.0,0.0,81,0.00,,,-99.99,open2300 version1.11,2013-08-12 04:40:00,
2013-08-12 00:45:00,66.0,60.0,30.06,SSE,157,0.0,0.0,81,0.00,,,-99.99,open2300 version1.11,2013-08-12 04:45:00,
2013-08-12 00:50:00,66.0,60.0,30.06,SSE,157,0.0,0.0,81,0.00,,,-99.99,open2300 version1.11,2013-08-12 04:50:00,
2013-08-12 00:55:00,65.8,60.2,30.06,SSE,157,0.0,0.0,82,0.00,,,-99.99,open2300 version1.11,2013-08-12 04:55:00,
2013-08-12 01:05:00,65.7,60.0,30.06,SSE,157,0.0,0.0,82,0.00,,,-99.99,open2300 version1.11,2013-08-12 05:05:00,
2013-08-12 01:10:00,65.7,60.0,30.06,SSE,157,0.0,0.0,82,0.00,,,-99.99,open2300 version1.11,2013-08-12 05:10:00,
2013-08-12 01:15:00,65.7,60.0,30.06,SSE,157,0.0,0.0,82,0.00,,,-99.99,open2300 version1.11,2013-08-12 05:15:00,
2013-08-12 01:20:00,65.7,60.0,30.06,SSE,157,0.0,0.0,82,0.00,,,-99.99,open2300 version1.11,2013-08-12 05:20:00,
2013-08-12 01:25:00,65.7,60.0,30.06,SSE,157,0.0,0.0,82,0.00,,,-99.99,open2300 version1.11,2013-08-12 05:25:00,
2013-08-12 01:30:00,65.7,60.0,30.06,SSE,157,0.0,0.0,82,0.00,,,-99.99,open2300 version1.11,2013-08-12 05:30:00,
2013-08-12 01:35:00,65.5,59.8,30.06,SSE,157,0.0,0.0,82,0.00,,,-99.99,open2300 version1.11,2013-08-12 05:35:00,
2013-08-12 01:40:00,65.5,59.8,30.06,SSE,157,0.0,0.0,82,0.00,,,-99.99,open2300 version1.11,2013-08-12 05:40:00,
2013-08-12 01:45:00,65.5,59.8,30.06,SSE,157,0.0,0.0,82,0.00,,,-99.99,open2300 version1.11,2013-08-12 05:45:00,
2013-08-12 01:50:00,65.5,60.2,30.06,SSE,157,0.0,0.0,83,0.00,,,-99.99,open2300 version1.11,2013-08-12 05:50:00,
2013-08-12 01:55:00,65.5,60.2,30.06,SSE,157,0.0,0.0,83,0.00,,,-99.99,open2300 version1.11,2013-08-12 05:55:00,
2013-08-12 02:00:00,65.5,59.8,30.06,SSE,157,0.0,0.0,82,0.00,,,-99.99,open2300 version1.11,2013-08-12 06:00:00,
2013-08-12 02:05:00,65.3,60.0,30.06,SSE,157,0.0,0.0,83,0.00,,,-99.99,open2300 version1.11,2013-08-12 06:05:00,
2013-08-12 02:10:00,65.3,60.0,30.05,SSE,157,0.0,0.0,83,0.00,,,-99.99,open2300 version1.11,2013-08-12 06:10:00,
2013-08-12 02:15:00,65.1,59.8,30.05,SSE,157,0.0,0.0,83,0.00,,,-99.99,open2300 version1.11,2013-08-12 06:15:00,
2013-08-12 02:20:00,65.1,59.8,30.05,SSE,157,0.0,0.0,83,0.00,,,-99.99,open2300 version1.11,2013-08-12 06:20:00,
2013-08-12 02:25:00,65.1,59.8,30.05,SSE,157,0.0,0.0,83,0.00,,,-99.99,open2300 version1.11,2013-08-12 06:25:00,
2013-08-12 02:30:00,65.1,59.8,30.05,SSE,157,0.0,0.0,83,0.00,,,-99.99,open2300 version1.11,2013-08-12 06:30:00,
2013-08-12 02:35:00,65.1,59.8,30.05,SSE,157,0.0,0.0,83,0.00,,,-99.99,open2300 version1.11,2013-08-12 06:35:00,
2013-08-12 02:40:00,64.9,59.6,30.05,SSE,157,0.0,0.0,83,0.00,,,-99.99,open2300 version1.11,2013-08-12 06:40:00,
2013-08-12 02:45:00,64.9,59.6,30.05,SSE,157,0.0,0.0,83,0.00,,,-99.99,open2300 version1.11,2013-08-12 06:45:00,
2013-08-12 02:50:00,64.9,59.6,30.05,SSE,157,0.0,0.0,83,0.00,,,-99.99,open2300 version1.11,2013-08-12 06:50:00,
2013-08-12 02:55:00,64.9,59.6,30.05,SSE,157,0.0,0.0,83,0.00,,,-99.99,open2300 version1.11,2013-08-12 06:55:00,
2013-08-12 03:00:00,64.9,59.6,30.05,SSE,157,0.0,0.0,83,0.00,,,-99.99,open2300 version1.11,2013-08-12 07:00:00,
2013-08-12 03:05:00,64.9,59.6,30.05,SSE,157,0.0,0.0,83,0.00,,,-99.99,open2300 version1.11,2013-08-12 07:05:00,
2013-08-12 03:10:00,64.9,59.6,30.05,SSE,157,0.0,0.0,83,0.00,,,-99.99,open2300 version1.11,2013-08-12 07:10:00,
2013-08-12 03:15:00,64.8,59.5,30.04,SSE,157,0.0,0.0,83,0.00,,,-99.99,open2300 version1.11,2013-08-12 07:15:00,
2013-08-12 03:20:00,64.8,59.8,30.04,SSE,157,0.0,0.0,84,0.00,,,-99.99,open2300 version1.11,2013-08-12 07:20:00,
2013-08-12 03:25:00,64.8,59.8,30.04,SSE,157,0.0,0.0,84,0.00,,,-99.99,open2300 version1.11,2013-08-12 07:25:00,
2013-08-12 03:30:00,64.6,59.6,30.03,SSE,157,0.0,0.0,84,0.00,,,-99.99,open2300 version1.11,2013-08-12 07:30:00,
2013-08-12 03:35:00,64.6,59.6,30.03,SSE,157,0.0,0.0,84,0.00,,,-99.99,open2300 version1.11,2013-08-12 07:35:00,
2013-08-12 03:40:00,64.6,59.6,30.03,SSE,157,0.0,0.0,84,0.00,,,-99.99,open2300 version1.11,2013-08-12 07:40:00,
2013-08-12 03:45:00,64.6,59.6,30.03,SSE,157,0.0,0.0,84,0.00,,,-99.99,open2300 version1.11,2013-08-12 07:45:00,
2013-08-12 03:50:00,64.6,59.6,30.03,SSE,157,0.0,0.0,84,0.00,,,-99.99,open2300 version1.11,2013-08-12 07:50:00,
2013-08-12 03:55:00,64.6,59.6,30.03,SSE,157,0.0,0.0,84,0.00,,,-99.99,open2300 version1.11,2013-08-12 07:55:00,
2013-08-12 04:00:00,64.6,59.6,30.03,SSE,157,0.0,0.0,84,0.00,,,-99.99,open2300 version1.11,2013-08-12 08:00:00,
2013-08-12 04:05:00,64.6,59.6,30.03,SSE,157,0.0,0.0,84,0.00,,,-99.99,open2300 version1.11,2013-08-12 08:05:00,
2013-08-12 04:10:00,64.6,59.6,30.03,SSE,157,0.0,0.0,84,0.00,,,-99.99,open2300 version1.11,2013-08-12 08:10:00,
2013-08-12 04:15:00,64.6,59.6,30.03,SSE,157,0.0,0.0,84,0.00,,,-99.99,open2300 version1.11,2013-08-12 08:15:00,
2013-08-12 04:20:00,64.6,60.0,30.04,SSE,157,0.0,0.0,85,0.00,,,-99.99,open2300 version1.11,2013-08-12 08:20:00,
2013-08-12 04:25:00,64.6,60.0,30.03,SSE,157,0.0,0.0,85,0.00,,,-99.99,open2300 version1.11,2013-08-12 08:25:00,
2013-08-12 04:30:00,64.6,60.0,30.03,SSE,157,0.0,0.0,85,0.00,,,-99.99,open2300 version1.11,2013-08-12 08:30:00,
2013-08-12 04:35:00,64.6,60.0,30.03,SSE,157,0.0,0.0,85,0.00,,,-99.99,open2300 version1.11,2013-08-12 08:35:00,
2013-08-12 04:40:00,64.6,60.0,30.02,SSE,157,0.0,0.0,85,0.00,,,-99.99,open2300 version1.11,2013-08-12 08:40:00,
2013-08-12 04:45:00,64.6,60.0,30.03,SSE,157,0.0,0.0,85,0.00,,,-99.99,open2300 version1.11,2013-08-12 08:45:00,
2013-08-12 04:50:00,64.6,60.0,30.03,SSE,157,0.0,0.0,85,0.00,,,-99.99,open2300 version1.11,2013-08-12 08:50:00,
2013-08-12 04:55:00,64.6,60.0,30.02,SSE,157,0.0,0.0,85,0.00,,,-99.99,open2300 version1.11,2013-08-12 08:55:00,
2013-08-12 05:00:00,64.6,60.0,30.02,SSE,157,0.0,0.0,85,0.00,,,-99.99,open2300 version1.11,2013-08-12 09:00:00,
2013-08-12 05:05:00,64.6,60.0,30.03,SSE,157,0.0,0.0,85,0.00,,,-99.99,open2300 version1.11,2013-08-12 09:05:00,
2013-08-12 05:10:00,64.6,60.0,30.02,SSE,157,0.0,0.0,85,0.00,,,-99.99,open2300 version1.11,2013-08-12 09:10:00,
2013-08-12 05:15:00,64.6,60.0,30.02,SSE,157,0.0,0.0,85,0.00,,,-99.99,open2300 version1.11,2013-08-12 09:15:00,
2013-08-12 05:20:00,64.6,60.0,30.03,SSE,157,0.0,0.0,85,0.00,,,-99.99,open2300 version1.11,2013-08-12 09:20:00,
2013-08-12 05:25:00,64.6,60.0,30.02,SSE,157,0.0,0.0,85,0.00,,,-99.99,open2300 version1.11,2013-08-12 09:25:00,
2013-08-12 05:30:00,64.6,60.0,30.01,SSE,157,0.0,0.0,85,0.00,,,-99.99,open2300 version1.11,2013-08-12 09:30:00,
2013-08-12 05:35:00,64.6,60.0,30.02,SSE,157,0.0,0.0,85,0.00,,,-99.99,open2300 version1.11,2013-08-12 09:35:00,
2013-08-12 05:40:00,64.6,60.0,30.02,SSE,157,0.0,0.0,85,0.00,,,-99.99,open2300 version1.11,2013-08-12 09:40:00,
2013-08-12 05:45:00,64.6,60.0,30.02,SSE,157,0.0,0.0,85,0.00,,,-99.99,open2300 version1.11,2013-08-12 09:45:00,
2013-08-12 05:50:00,64.6,60.0,30.02,SSE,157,0.0,0.0,85,0.00,,,-99.99,open2300 version1.11,2013-08-12 09:50:00,
2013-08-12 05:55:00,64.6,60.0,30.02,SSE,157,0.0,0.0,85,0.00,,,-99.99,open2300 version1.11,2013-08-12 09:55:00,
2013-08-12 06:00:00,64.6,60.0,30.02,SSE,157,0.0,0.0,85,0.00,,,-99.99,open2300 version1.11,2013-08-12 10:00:00,
2013-08-12 06:05:00,64.8,60.1,30.02,SSE,157,0.0,0.0,85,0.00,,,-99.99,open2300 version1.11,2013-08-12 10:05:00,
2013-08-12 06:10:00,64.8,60.5,30.01,SSE,157,0.0,0.0,86,0.00,,,-99.99,open2300 version1.11,2013-08-12 10:10:00,
2013-08-12 06:15:00,64.8,60.5,30.01,SSE,157,0.0,0.0,86,0.00,,,-99.99,open2300 version1.11,2013-08-12 10:15:00,
2013-08-12 06:20:00,64.8,60.5,30.01,SSE,157,0.0,0.0,86,0.00,,,-99.99,open2300 version1.11,2013-08-12 10:20:00,
2013-08-12 06:25:00,64.8,60.5,30.01,SSE,157,0.0,0.0,86,0.00,,,-99.99,open2300 version1.11,2013-08-12 10:25:00,
2013-08-12 06:30:00,64.8,60.5,30.02,SSE,157,0.0,0.0,86,0.00,,,-99.99,open2300 version1.11,2013-08-12 10:30:00,
2013-08-12 06:35:00,64.8,60.5,30.02,SSE,157,0.0,0.0,86,0.00,,,-99.99,open2300 version1.11,2013-08-12 10:35:00,
2013-08-12 06:40:00,64.6,60.3,30.02,SSE,157,0.0,0.0,86,0.00,,,-99.99,open2300 version1.11,2013-08-12 10:40:00,
2013-08-12 06:45:00,64.8,60.5,30.01,SSE,157,0.0,0.0,86,0.00,,,-99.99,open2300 version1.11,2013-08-12 10:45:00,
2013-08-12 06:50:00,64.8,60.5,30.01,SSE,157,0.0,0.0,86,0.00,,,-99.99,open2300 version1.11,2013-08-12 10:50:00,
2013-08-12 06:55:00,64.8,60.8,30.01,SSE,157,0.0,0.0,87,0.00,,,-99.99,open2300 version1.11,2013-08-12 10:55:00,
2013-08-12 07:00:00,64.8,60.8,30.01,SSE,157,0.0,0.0,87,0.00,,,-99.99,open2300 version1.11,2013-08-12 11:00:00,
2013-08-12 07:05:00,64.8,60.5,30.02,SSE,157,0.0,0.0,86,0.00,,,-99.99,open2300 version1.11,2013-08-12 11:05:00,
2013-08-12 07:10:00,64.9,60.7,30.02,SSE,157,0.0,0.0,86,0.00,,,-99.99,open2300 version1.11,2013-08-12 11:10:00,
2013-08-12 07:15:00,64.9,60.7,30.02,SSE,157,0.0,0.0,86,0.00,,,-99.99,open2300 version1.11,2013-08-12 11:15:00,
2013-08-12 07:20:00,64.8,60.5,30.02,SSE,157,0.0,0.0,86,0.00,,,-99.99,open2300 version1.11,2013-08-12 11:20:00,
2013-08-12 07:25:00,64.8,60.5,30.03,SSE,157,0.0,0.0,86,0.00,,,-99.99,open2300 version1.11,2013-08-12 11:25:00,
2013-08-12 07:30:00,64.8,60.5,30.03,SSE,157,0.0,0.0,86,0.00,,,-99.99,open2300 version1.11,2013-08-12 11:30:00,
2013-08-12 07:35:00,64.8,60.5,30.03,SSE,157,0.0,0.0,86,0.00,,,-99.99,open2300 version1.11,2013-08-12 11:35:00,
2013-08-12 07:40:00,64.8,60.5,30.03,SSE,157,0.0,0.0,86,0.00,,,-99.99,open2300 version1.11,2013-08-12 11:40:00,
2013-08-12 07:45:00,64.8,60.5,30.03,SSE,157,0.0,0.0,86,0.00,,,-99.99,open2300 version1.11,2013-08-12 11:45:00,
2013-08-12 07:50:00,64.6,60.3,30.03,SSE,157,0.0,0.0,86,0.00,,,-99.99,open2300 version1.11,2013-08-12 11:50:00,
2013-08-12 07:55:00,64.6,60.7,30.02,SSE,157,0.0,0.0,87,0.00,,,-99.99,open2300 version1.11,2013-08-12 11:55:00,
2013-08-12 08:00:00,64.6,60.7,30.01,SSE,157,0.0,0.0,87,0.02,,,-99.99,open2300 version1.11,2013-08-12 12:00:00,
2013-08-12 08:05:00,64.4,60.1,30.01,SSE,157,0.0,0.0,86,0.04,,,-99.99,open2300 version1.11,2013-08-12 12:05:00,
2013-08-12 08:10:00,64.2,60.3,30.01,NNE,22,0.0,0.5,87,0.06,,,-99.99,open2300 version1.11,2013-08-12 12:10:00,
2013-08-12 08:15:00,64.2,60.3,30.01,NNE,22,0.0,0.0,87,0.06,,,-99.99,open2300 version1.11,2013-08-12 12:15:00,
2013-08-12 08:20:00,64.2,60.3,30.01,NE,45,0.0,0.0,87,0.08,,,-99.99,open2300 version1.11,2013-08-12 12:20:00,
2013-08-12 08:25:00,64.0,60.1,30.03,North,0,0.0,0.0,87,0.08,,,-99.99,open2300 version1.11,2013-08-12 12:25:00,
2013-08-12 08:30:00,64.0,60.1,30.03,North,0,0.0,0.0,87,0.08,,,-99.99,open2300 version1.11,2013-08-12 12:30:00,
2013-08-12 08:35:00,64.0,60.5,30.03,North,0,0.0,0.0,88,0.08,,,-99.99,open2300 version1.11,2013-08-12 12:35:00,
2013-08-12 08:40:00,64.0,60.5,30.03,SSW,202,0.0,0.0,88,0.08,,,-99.99,open2300 version1.11,2013-08-12 12:40:00,
2013-08-12 08:45:00,64.0,60.5,30.03,SSW,202,0.0,0.2,88,0.08,,,-99.99,open2300 version1.11,2013-08-12 12:45:00,
2013-08-12 08:50:00,64.0,60.5,30.02,SSW,202,0.0,0.0,88,0.10,,,-99.99,open2300 version1.11,2013-08-12 12:50:00,
2013-08-12 08:55:00,64.0,60.5,30.01,SSW,202,0.0,0.0,88,0.08,,,-99.99,open2300 version1.11,2013-08-12 12:55:00,
2013-08-12 09:00:00,63.9,60.3,30.01,SSW,202,0.0,0.0,88,0.08,,,-99.99,open2300 version1.11,2013-08-12 13:00:00,
2013-08-12 09:05:00,63.7,60.5,30.01,SSW,202,0.0,0.0,89,0.10,,,-99.99,open2300 version1.11,2013-08-12 13:05:00,
2013-08-12 09:10:00,63.7,60.5,30.00,SSW,202,0.0,0.0,89,0.08,,,-99.99,open2300 version1.11,2013-08-12 13:10:00,
2013-08-12 09:15:00,63.9,60.6,30.00,SSW,202,0.0,0.0,89,0.10,,,-99.99,open2300 version1.11,2013-08-12 13:15:00,
2013-08-12 09:20:00,63.7,60.5,29.98,SSE,157,0.5,3.6,89,0.10,,,-99.99,open2300 version1.11,2013-08-12 13:20:00,
2013-08-12 09:25:00,63.9,60.6,29.98,SSE,157,0.2,2.2,89,0.12,,,-99.99,open2300 version1.11,2013-08-12 13:25:00,
2013-08-12 09:30:00,63.9,60.6,29.98,SSE,157,0.0,0.7,89,0.12,,,-99.99,open2300 version1.11,2013-08-12 13:30:00,
2013-08-12 09:35:00,64.0,60.8,29.99,SSE,157,0.1,2.5,89,0.12,,,-99.99,open2300 version1.11,2013-08-12 13:35:00,
2013-08-12 09:40:00,64.0,60.8,29.99,SSE,157,0.0,0.0,89,0.12,,,-99.99,open2300 version1.11,2013-08-12 13:40:00,
2013-08-12 09:45:00,64.0,60.8,30.00,SSE,157,0.0,0.0,89,0.12,,,-99.99,open2300 version1.11,2013-08-12 13:45:00,
2013-08-12 09:50:00,64.0,60.8,30.00,SSE,157,0.0,0.0,89,0.10,,,-99.99,open2300 version1.11,2013-08-12 13:50:00,
2013-08-12 09:55:00,64.0,60.8,30.00,SSE,157,0.0,0.0,89,0.12,,,-99.99,open2300 version1.11,2013-08-12 13:55:00,
2013-08-12 10:00:00,64.2,61.3,30.00,SSE,157,0.0,0.0,90,0.10,,,-99.99,open2300 version1.11,2013-08-12 14:00:00,
2013-08-12 10:05:00,64.2,61.0,30.00,SSE,157,0.0,0.0,89,0.08,,,-99.99,open2300 version1.11,2013-08-12 14:05:00,
2013-08-12 10:10:00,64.2,61.3,29.99,SSE,157,0.0,0.0,90,0.06,,,-99.99,open2300 version1.11,2013-08-12 14:10:00,
2013-08-12 10:15:00,64.2,61.3,29.99,SSE,157,0.3,1.8,90,0.08,,,-99.99,open2300 version1.11,2013-08-12 14:15:00,
2013-08-12 10:20:00,64.6,61.7,30.00,SSE,157,0.1,0.7,90,0.08,,,-99.99,open2300 version1.11,2013-08-12 14:20:00,
2013-08-12 10:25:00,64.6,61.7,30.00,SSE,157,0.0,0.0,90,0.06,,,-99.99,open2300 version1.11,2013-08-12 14:25:00,
2013-08-12 10:30:00,64.6,61.7,30.01,SSE,157,0.0,0.0,90,0.08,,,-99.99,open2300 version1.11,2013-08-12 14:30:00,
2013-08-12 10:35:00,64.6,61.7,30.00,SSE,157,0.0,0.0,90,0.08,,,-99.99,open2300 version1.11,2013-08-12 14:35:00,
2013-08-12 10:40:00,64.9,62.0,30.01,SSE,157,0.0,0.0,90,0.08,,,-99.99,open2300 version1.11,2013-08-12 14:40:00,
2013-08-12 10:45:00,64.9,62.0,30.00,SSE,157,0.0,0.0,90,0.08,,,-99.99,open2300 version1.11,2013-08-12 14:45:00,
2013-08-12 10:50:00,64.9,62.0,30.01,SSE,157,0.0,0.0,90,0.08,,,-99.99,open2300 version1.11,2013-08-12 14:50:00,
2013-08-12 10:55:00,65.1,62.2,30.00,SSE,157,0.0,0.0,90,0.06,,,-99.99,open2300 version1.11,2013-08-12 14:55:00,
2013-08-12 11:00:00,65.1,62.2,30.01,SSE,157,0.0,0.0,90,0.08,,,-99.99,open2300 version1.11,2013-08-12 15:00:00,
2013-08-12 11:05:00,65.3,62.6,30.01,SSE,157,0.0,0.0,91,0.08,,,-99.99,open2300 version1.11,2013-08-12 15:05:00,
2013-08-12 11:10:00,65.3,62.3,30.01,South,180,0.0,1.1,90,0.08,,,-99.99,open2300 version1.11,2013-08-12 15:10:00,
2013-08-12 11:15:00,65.5,62.5,30.00,SSE,157,0.2,3.8,90,0.06,,,-99.99,open2300 version1.11,2013-08-12 15:15:00,
2013-08-12 11:20:00,65.5,62.8,30.00,NNE,22,0.0,0.0,91,0.04,,,-99.99,open2300 version1.11,2013-08-12 15:20:00,
2013-08-12 11:25:00,65.5,62.5,30.00,NE,45,0.0,0.0,90,0.02,,,-99.99,open2300 version1.11,2013-08-12 15:25:00,
2013-08-12 11:30:00,65.5,62.8,30.00,NE,45,0.0,0.0,91,0.02,,,-99.99,open2300 version1.11,2013-08-12 15:30:00,
2013-08-12 11:35:00,65.5,62.8,30.00,NNE,22,0.1,1.1,91,0.02,,,-99.99,open2300 version1.11,2013-08-12 15:35:00,
2013-08-12 11:40:00,65.5,62.5,29.99,SW,225,0.0,0.0,90,0.02,,,-99.99,open2300 version1.11,2013-08-12 15:40:00,
2013-08-12 11:45:00,65.3,62.3,30.00,SW,225,0.0,0.0,90,0.02,,,-99.99,open2300 version1.11,2013-08-12 15:45:00,
2013-08-12 11:50:00,65.3,62.3,30.00,SW,225,0.0,0.0,90,0.02,,,-99.99,open2300 version1.11,2013-08-12 15:50:00,
2013-08-12 11:55:00,65.5,62.5,30.00,SW,225,0.0,0.7,90,0.02,,,-99.99,open2300 version1.11,2013-08-12 15:55:00,
2013-08-12 12:00:00,65.5,62.5,30.00,SW,225,0.0,0.0,90,0.02,,,-99.99,open2300 version1.11,2013-08-12 16:00:00,
2013-08-12 12:05:00,65.3,62.3,30.00,SSW,213,0.3,1.1,90,0.02,,,-99.99,open2300 version1.11,2013-08-12 16:05:00,
2013-08-12 12:10:00,65.3,62.3,29.99,SW,225,0.0,0.0,90,0.04,,,-99.99,open2300 version1.11,2013-08-12 16:10:00,
2013-08-12 12:15:00,65.5,62.5,29.99,SW,225,0.0,0.0,90,0.04,,,-99.99,open2300 version1.11,2013-08-12 16:15:00,
2013-08-12 12:20:00,65.5,62.5,29.99,SW,225,0.0,0.7,90,0.04,,,-99.99,open2300 version1.11,2013-08-12 16:20:00,
2013-08-12 12:25:00,65.5,62.8,29.99,SW,225,0.0,0.0,91,0.06,,,-99.99,open2300 version1.11,2013-08-12 16:25:00,
2013-08-12 12:30:00,65.7,62.9,29.99,SW,225,0.0,0.0,91,0.06,,,-99.99,open2300 version1.11,2013-08-12 16:30:00,
2013-08-12 12:35:00,65.8,63.1,29.99,NE,45,0.1,1.3,91,0.06,,,-99.99,open2300 version1.11,2013-08-12 16:35:00,
2013-08-12 12:40:00,65.8,63.1,29.99,NE,45,0.0,1.1,91,0.06,,,-99.99,open2300 version1.11,2013-08-12 16:40:00,
2013-08-12 12:45:00,65.8,63.1,29.99,NE,45,0.0,0.7,91,0.06,,,-99.99,open2300 version1.11,2013-08-12 16:45:00,
2013-08-12 12:50:00,66.0,63.0,29.99,NE,45,0.0,0.7,90,0.08,,,-99.99,open2300 version1.11,2013-08-12 16:50:00,
2013-08-12 12:55:00,66.0,63.0,29.99,NE,45,0.0,0.7,90,0.08,,,-99.99,open2300 version1.11,2013-08-12 16:55:00,
2013-08-12 13:00:00,66.0,63.0,29.99,NE,45,0.0,0.7,90,0.06,,,-99.99,open2300 version1.11,2013-08-12 17:00:00,
2013-08-12 13:05:00,66.0,63.0,29.99,NE,45,0.0,0.5,90,0.04,,,-99.99,open2300 version1.11,2013-08-12 17:05:00,
2013-08-12 13:10:00,66.0,63.0,29.99,NE,45,0.0,0.0,90,0.04,,,-99.99,open2300 version1.11,2013-08-12 17:10:00,
2013-08-12 13:15:00,66.2,63.5,29.98,NE,45,0.0,0.7,91,0.04,,,-99.99,open2300 version1.11,2013-08-12 17:15:00,
2013-08-12 13:20:00,66.4,63.6,29.98,NE,45,0.0,0.0,91,0.02,,,-99.99,open2300 version1.11,2013-08-12 17:20:00,
2013-08-12 13:25:00,66.4,63.6,29.98,NE,45,0.0,0.0,91,0.02,,,-99.99,open2300 version1.11,2013-08-12 17:25:00,
2013-08-12 13:30:00,66.4,63.6,29.99,NE,45,0.0,0.0,91,0.02,,,-99.99,open2300 version1.11,2013-08-12 17:30:00,
2013-08-12 13:35:00,66.4,63.6,29.99,NE,45,0.0,0.5,91,0.02,,,-99.99,open2300 version1.11,2013-08-12 17:35:00,
2013-08-12 13:40:00,66.4,63.6,29.98,NE,45,0.0,0.9,91,0.02,,,-99.99,open2300 version1.11,2013-08-12 17:40:00,
2013-08-12 13:45:00,66.6,63.8,29.98,NE,45,0.2,1.8,91,0.00,,,-99.99,open2300 version1.11,2013-08-12 17:45:00,
2013-08-12 13:50:00,66.7,64.0,29.98,SW,225,0.0,0.2,91,0.00,,,-99.99,open2300 version1.11,2013-08-12 17:50:00,
2013-08-12 13:55:00,66.7,64.0,29.98,SW,225,0.4,1.6,91,0.00,,,-99.99,open2300 version1.11,2013-08-12 17:55:00,
2013-08-12 14:00:00,66.7,64.0,29.98,SW,225,0.0,0.9,91,0.00,,,-99.99,open2300 version1.11,2013-08-12 18:00:00,
2013-08-12 14:05:00,66.7,64.0,29.98,SW,225,0.0,0.0,91,0.00,,,-99.99,open2300 version1.11,2013-08-12 18:05:00,
2013-08-12 14:10:00,66.7,64.0,29.97,SW,225,0.0,0.0,91,0.02,,,-99.99,open2300 version1.11,2013-08-12 18:10:00,
2013-08-12 14:15:00,66.7,64.0,29.96,SW,225,0.1,0.9,91,0.02,,,-99.99,open2300 version1.11,2013-08-12 18:15:00,
2013-08-12 14:20:00,66.7,64.0,29.97,SW,225,0.1,1.3,91,0.02,,,-99.99,open2300 version1.11,2013-08-12 18:20:00,
2013-08-12 14:25:00,66.9,64.2,29.97,SW,225,0.1,1.1,91,0.02,,,-99.99,open2300 version1.11,2013-08-12 18:25:00,
2013-08-12 14:30:00,66.9,64.2,29.97,SW,225,0.0,0.0,91,0.02,,,-99.99,open2300 version1.11,2013-08-12 18:30:00,
2013-08-12 14:35:00,67.1,64.3,29.97,SW,225,0.0,0.0,91,0.02,,,-99.99,open2300 version1.11,2013-08-12 18:35:00,
2013-08-12 14:40:00,67.1,64.3,29.97,SW,225,0.1,1.6,91,0.02,,,-99.99,open2300 version1.11,2013-08-12 18:40:00,
2013-08-12 14:45:00,67.1,64.3,29.97,SW,225,0.0,0.7,91,0.02,,,-99.99,open2300 version1.11,2013-08-12 18:45:00,
2013-08-12 14:50:00,67.1,64.3,29.97,SW,225,0.0,0.5,91,0.02,,,-99.99,open2300 version1.11,2013-08-12 18:50:00,
2013-08-12 14:55:00,67.3,64.5,29.97,SW,225,0.2,1.1,91,0.02,,,-99.99,open2300 version1.11,2013-08-12 18:55:00,
2013-08-12 15:00:00,67.3,64.5,29.97,SW,225,0.2,1.6,91,0.02,,,-99.99,open2300 version1.11,2013-08-12 19:00:00,
2013-08-12 15:05:00,67.3,64.5,29.97,SW,225,0.1,1.1,91,0.00,,,-99.99,open2300 version1.11,2013-08-12 19:05:00,
2013-08-12 15:10:00,67.3,64.5,29.97,SW,225,0.1,1.1,91,0.00,,,-99.99,open2300 version1.11,2013-08-12 19:10:00,
2013-08-12 15:15:00,67.1,64.3,29.97,SW,225,0.0,0.0,91,0.02,,,-99.99,open2300 version1.11,2013-08-12 19:15:00,
2013-08-12 15:20:00,67.1,64.3,29.96,SW,225,0.1,1.1,91,0.02,,,-99.99,open2300 version1.11,2013-08-12 19:20:00,
2013-08-12 15:25:00,67.1,64.3,29.96,SW,225,0.0,0.0,91,0.04,,,-99.99,open2300 version1.11,2013-08-12 19:25:00,
2013-08-12 15:30:00,67.1,64.3,29.96,SW,225,0.0,0.0,91,0.04,,,-99.99,open2300 version1.11,2013-08-12 19:30:00,
2013-08-12 15:35:00,67.3,64.5,29.95,SW,225,0.1,1.6,91,0.04,,,-99.99,open2300 version1.11,2013-08-12 19:35:00,
2013-08-12 15:40:00,67.3,64.5,29.95,SW,225,0.0,0.7,91,0.04,,,-99.99,open2300 version1.11,2013-08-12 19:40:00,
2013-08-12 15:45:00,67.5,64.7,29.95,SW,225,0.1,1.1,91,0.04,,,-99.99,open2300 version1.11,2013-08-12 19:45:00,
2013-08-12 15:50:00,67.8,65.1,29.94,SW,225,0.2,1.1,91,0.04,,,-99.99,open2300 version1.11,2013-08-12 19:50:00,
2013-08-12 15:55:00,68.2,65.4,29.95,SSE,157,0.0,0.2,91,0.04,,,-99.99,open2300 version1.11,2013-08-12 19:55:00,
2013-08-12 16:00:00,68.2,65.4,29.95,SW,225,0.0,0.9,91,0.04,,,-99.99,open2300 version1.11,2013-08-12 20:00:00,
2013-08-12 16:05:00,68.4,65.6,29.94,SW,225,0.0,0.0,91,0.04,,,-99.99,open2300 version1.11,2013-08-12 20:05:00,
2013-08-12 16:10:00,68.5,65.8,29.94,SSW,202,0.0,0.9,91,0.02,,,-99.99,open2300 version1.11,2013-08-12 20:10:00,
2013-08-12 16:15:00,68.7,66.0,29.94,SW,225,0.0,0.0,91,0.02,,,-99.99,open2300 version1.11,2013-08-12 20:15:00,
2013-08-12 16:20:00,68.7,66.0,29.93,South,180,0.0,0.2,91,0.00,,,-99.99,open2300 version1.11,2013-08-12 20:20:00,
2013-08-12 16:25:00,68.9,66.2,29.93,South,180,0.0,0.7,91,0.00,,,-99.99,open2300 version1.11,2013-08-12 20:25:00,
2013-08-12 16:30:00,69.1,66.3,29.93,SSE,157,0.2,2.5,91,0.00,,,-99.99,open2300 version1.11,2013-08-12 20:30:00,
2013-08-12 16:35:00,69.1,66.3,29.93,SSE,157,0.0,0.0,91,0.00,,,-99.99,open2300 version1.11,2013-08-12 20:35:00,
2013-08-12 16:40:00,69.1,66.0,29.93,SSE,157,0.2,2.7,90,0.00,,,-99.99,open2300 version1.11,2013-08-12 20:40:00,
2013-08-12 16:45:00,68.9,65.8,29.91,SSE,157,0.1,1.8,90,0.00,,,-99.99,open2300 version1.11,2013-08-12 20:45:00,
2013-08-12 16:50:00,68.9,65.8,29.92,SSE,157,0.0,0.9,90,0.00,,,-99.99,open2300 version1.11,2013-08-12 20:50:00,
2013-08-12 16:55:00,69.1,66.0,29.93,SSE,157,0.0,0.0,90,0.00,,,-99.99,open2300 version1.11,2013-08-12 20:55:00,
2013-08-12 17:00:00,69.1,66.0,29.92,SSE,157,0.0,0.0,90,0.00,,,-99.99,open2300 version1.11,2013-08-12 21:00:00,
2013-08-12 17:05:00,69.4,66.4,29.92,SSE,157,0.0,0.0,90,0.00,,,-99.99,open2300 version1.11,2013-08-12 21:05:00,
2013-08-12 17:10:00,69.6,66.6,29.92,SSE,157,0.0,0.0,90,0.00,,,-99.99,open2300 version1.11,2013-08-12 21:10:00,
2013-08-12 17:15:00,69.6,66.6,29.93,SSE,157,0.0,0.0,90,0.00,,,-99.99,open2300 version1.11,2013-08-12 21:15:00,
2013-08-12 17:20:00,69.6,66.6,29.92,SSE,157,0.0,0.9,90,0.00,,,-99.99,open2300 version1.11,2013-08-12 21:20:00,
2013-08-12 17:25:00,69.6,66.6,29.92,SSE,157,0.0,0.0,90,0.00,,,-99.99,open2300 version1.11,2013-08-12 21:25:00,
2013-08-12 17:30:00,69.6,66.6,29.92,SSE,157,0.0,0.0,90,0.00,,,-99.99,open2300 version1.11,2013-08-12 21:30:00,
2013-08-12 17:35:00,70.0,66.9,29.92,SSE,157,0.0,0.0,90,0.00,,,-99.99,open2300 version1.11,2013-08-12 21:35:00,
2013-08-12 17:40:00,69.8,66.7,29.92,SSE,157,0.0,0.0,90,0.00,,,-99.99,open2300 version1.11,2013-08-12 21:40:00,
2013-08-12 17:45:00,69.8,66.7,29.92,SSE,157,0.0,0.0,90,0.00,,,-99.99,open2300 version1.11,2013-08-12 21:45:00,
2013-08-12 17:50:00,69.8,66.7,29.91,SSE,157,0.0,0.0,90,0.00,,,-99.99,open2300 version1.11,2013-08-12 21:50:00,
2013-08-12 17:55:00,70.0,66.9,29.91,SSE,157,0.0,0.0,90,0.00,,,-99.99,open2300 version1.11,2013-08-12 21:55:00,
2013-08-12 18:00:00,70.0,66.9,29.90,SSE,157,0.0,0.0,90,0.00,,,-99.99,open2300 version1.11,2013-08-12 22:00:00,
2013-08-12 18:05:00,69.8,66.7,29.90,SSE,157,0.0,0.0,90,0.00,,,-99.99,open2300 version1.11,2013-08-12 22:05:00,
2013-08-12 18:10:00,69.8,66.7,29.90,SSE,157,0.0,0.0,90,0.00,,,-99.99,open2300 version1.11,2013-08-12 22:10:00,
2013-08-12 18:15:00,70.0,66.9,29.90,SSE,157,0.0,0.0,90,0.00,,,-99.99,open2300 version1.11,2013-08-12 22:15:00,
2013-08-12 18:20:00,70.0,66.9,29.90,SSE,157,0.0,0.0,90,0.00,,,-99.99,open2300 version1.11,2013-08-12 22:20:00,
2013-08-12 18:25:00,70.0,66.9,29.90,SSE,157,0.0,0.0,90,0.00,,,-99.99,open2300 version1.11,2013-08-12 22:25:00,
2013-08-12 18:30:00,69.8,66.7,29.90,SSE,157,0.0,0.0,90,0.00,,,-99.99,open2300 version1.11,2013-08-12 22:30:00,
2013-08-12 18:35:00,69.8,66.7,29.90,SSE,157,0.0,0.0,90,0.00,,,-99.99,open2300 version1.11,2013-08-12 22:35:00,
2013-08-12 18:40:00,69.6,66.2,29.89,SSE,157,0.0,0.0,89,0.00,,,-99.99,open2300 version1.11,2013-08-12 22:40:00,
2013-08-12 18:45:00,69.6,66.2,29.89,SSE,157,0.0,0.0,89,0.00,,,-99.99,open2300 version1.11,2013-08-12 22:45:00,
2013-08-12 18:50:00,69.6,66.2,29.89,SSE,157,0.0,0.0,89,0.00,,,-99.99,open2300 version1.11,2013-08-12 22:50:00,
2013-08-12 18:55:00,69.6,66.2,29.89,SSE,157,0.0,0.0,89,0.00,,,-99.99,open2300 version1.11,2013-08-12 22:55:00,
2013-08-12 19:00:00,69.6,66.2,29.88,SSE,157,0.0,0.0,89,0.00,,,-99.99,open2300 version1.11,2013-08-12 23:00:00,
2013-08-12 19:05:00,69.6,66.6,29.87,SSE,157,0.0,0.0,90,0.00,,,-99.99,open2300 version1.11,2013-08-12 23:05:00,
2013-08-12 19:10:00,69.4,66.4,29.87,SSE,157,0.0,0.7,90,0.00,,,-99.99,open2300 version1.11,2013-08-12 23:10:00,
2013-08-12 19:15:00,69.4,66.4,29.87,SSE,157,0.0,0.0,90,0.00,,,-99.99,open2300 version1.11,2013-08-12 23:15:00,
2013-08-12 19:20:00,69.4,66.4,29.87,SSE,157,0.0,0.0,90,0.00,,,-99.99,open2300 version1.11,2013-08-12 23:20:00,
2013-08-12 19:25:00,69.1,66.0,29.87,SSE,157,0.0,0.0,90,0.00,,,-99.99,open2300 version1.11,2013-08-12 23:25:00,
2013-08-12 19:30:00,69.1,66.0,29.87,SSE,157,0.0,0.0,90,0.00,,,-99.99,open2300 version1.11,2013-08-12 23:30:00,
2013-08-12 19:35:00,69.1,66.0,29.86,SSE,157,0.0,0.0,90,0.00,,,-99.99,open2300 version1.11,2013-08-12 23:35:00,
2013-08-12 19:40:00,69.1,66.0,29.87,SSE,157,0.0,0.0,90,0.00,,,-99.99,open2300 version1.11,2013-08-12 23:40:00,
2013-08-12 19:45:00,68.9,65.8,29.87,SSE,157,0.0,0.0,90,0.02,,,-99.99,open2300 version1.11,2013-08-12 23:45:00,
2013-08-12 19:50:00,68.7,65.7,29.87,SSE,157,0.0,0.0,90,0.12,,,-99.99,open2300 version1.11,2013-08-12 23:50:00,
2013-08-12 19:55:00,68.7,65.7,29.88,SSE,157,0.0,0.0,90,0.20,,,-99.99,open2300 version1.11,2013-08-12 23:55:00,
2013-08-12 20:00:00,68.7,65.7,29.87,SSW,199,1.1,4.2,90,0.33,,,-99.99,open2300 version1.11,2013-08-13 00:00:00,
2013-08-12 20:05:00,68.7,66.0,29.88,SW,225,0.1,0.9,91,0.33,,,-99.99,open2300 version1.11,2013-08-13 00:05:00,
2013-08-12 20:10:00,68.5,65.8,29.87,SW,225,0.0,0.0,91,0.33,,,-99.99,open2300 version1.11,2013-08-13 00:10:00,
2013-08-12 20:15:00,68.5,65.8,29.87,SW,225,0.0,0.0,91,0.33,,,-99.99,open2300 version1.11,2013-08-13 00:15:00,
2013-08-12 20:20:00,68.5,65.8,29.87,SW,225,0.0,0.0,91,0.33,,,-99.99,open2300 version1.11,2013-08-13 00:20:00,
2013-08-12 20:25:00,68.4,65.6,29.86,SW,225,0.0,0.0,91,0.33,,,-99.99,open2300 version1.11,2013-08-13 00:25:00,
2013-08-12 20:30:00,68.2,65.4,29.87,SW,225,0.0,0.0,91,0.33,,,-99.99,open2300 version1.11,2013-08-13 00:30:00,
2013-08-12 20:35:00,68.2,65.4,29.87,SW,225,0.0,0.0,91,0.33,,,-99.99,open2300 version1.11,2013-08-13 00:35:00,
2013-08-12 20:40:00,68.2,65.4,29.87,SW,225,0.0,0.0,91,0.31,,,-99.99,open2300 version1.11,2013-08-13 00:40:00,
2013-08-12 20:45:00,68.2,65.4,29.86,SW,225,0.0,0.0,91,0.24,,,-99.99,open2300 version1.11,2013-08-13 00:45:00,
2013-08-12 20:50:00,68.2,65.4,29.86,SW,225,0.0,0.0,91,0.16,,,-99.99,open2300 version1.11,2013-08-13 00:50:00,
2013-08-12 20:55:00,68.2,65.4,29.86,SW,225,0.0,0.0,91,0.08,,,-99.99,open2300 version1.11,2013-08-13 00:55:00,
2013-08-12 21:00:00,68.0,65.2,29.85,SW,225,0.0,0.0,91,0.00,,,-99.99,open2300 version1.11,2013-08-13 01:00:00,
2013-08-12 21:05:00,67.8,65.1,29.85,SSW,202,0.0,0.9,91,0.00,,,-99.99,open2300 version1.11,2013-08-13 01:05:00,
2013-08-12 21:10:00,67.8,65.1,29.86,SSW,202,0.0,0.0,91,0.00,,,-99.99,open2300 version1.11,2013-08-13 01:10:00,
2013-08-12 21:15:00,67.8,65.1,29.86,SSW,202,0.0,0.0,91,0.00,,,-99.99,open2300 version1.11,2013-08-13 01:15:00,
2013-08-12 21:20:00,67.8,65.1,29.87,SSE,157,0.5,4.9,91,0.00,,,-99.99,open2300 version1.11,2013-08-13 01:20:00,
2013-08-12 21:25:00,67.8,65.1,29.86,SSE,168,0.1,2.9,91,0.00,,,-99.99,open2300 version1.11,2013-08-13 01:25:00,
2013-08-12 21:30:00,67.6,64.9,29.86,South,180,0.0,0.0,91,0.00,,,-99.99,open2300 version1.11,2013-08-13 01:30:00,
2013-08-12 21:35:00,67.3,64.5,29.85,South,180,0.2,1.8,91,0.00,,,-99.99,open2300 version1.11,2013-08-13 01:35:00,
2013-08-12 21:40:00,67.3,64.5,29.86,South,180,0.0,0.0,91,0.00,,,-99.99,open2300 version1.11,2013-08-13 01:40:00,
2013-08-12 21:45:00,67.1,64.3,29.86,South,180,0.0,0.0,91,0.00,,,-99.99,open2300 version1.11,2013-08-13 01:45:00,
2013-08-12 21:50:00,66.9,64.2,29.86,South,180,0.0,0.0,91,0.00,,,-99.99,open2300 version1.11,2013-08-13 01:50:00,
2013-08-12 21:55:00,66.7,64.0,29.87,South,180,0.0,0.0,91,0.00,,,-99.99,open2300 version1.11,2013-08-13 01:55:00,
2013-08-12 22:00:00,66.7,64.0,29.87,South,180,0.1,0.9,91,0.00,,,-99.99,open2300 version1.11,2013-08-13 02:00:00,
2013-08-12 22:05:00,66.6,63.8,29.87,South,180,0.0,0.0,91,0.00,,,-99.99,open2300 version1.11,2013-08-13 02:05:00,
2013-08-12 22:10:00,66.4,63.6,29.87,South,180,0.0,0.0,91,0.00,,,-99.99,open2300 version1.11,2013-08-13 02:10:00,
2013-08-12 22:15:00,66.4,63.6,29.87,South,180,0.0,0.0,91,0.00,,,-99.99,open2300 version1.11,2013-08-13 02:15:00,
2013-08-12 22:20:00,66.0,63.3,29.87,South,180,0.0,0.0,91,0.00,,,-99.99,open2300 version1.11,2013-08-13 02:20:00,
2013-08-12 22:25:00,66.0,63.3,29.87,South,180,0.0,0.0,91,0.00,,,-99.99,open2300 version1.11,2013-08-13 02:25:00,
2013-08-12 22:30:00,66.0,63.3,29.87,South,180,0.0,0.0,91,0.00,,,-99.99,open2300 version1.11,2013-08-13 02:30:00,
2013-08-12 22:35:00,66.0,63.3,29.87,South,180,0.0,0.0,91,0.00,,,-99.99,open2300 version1.11,2013-08-13 02:35:00,
2013-08-12 22:40:00,65.8,63.1,29.86,South,180,0.0,0.0,91,0.00,,,-99.99,open2300 version1.11,2013-08-13 02:40:00,
2013-08-12 22:45:00,65.8,63.1,29.87,South,180,0.0,0.0,91,0.00,,,-99.99,open2300 version1.11,2013-08-13 02:45:00,
2013-08-12 22:50:00,65.7,62.9,29.87,South,180,0.0,0.0,91,0.00,,,-99.99,open2300 version1.11,2013-08-13 02:50:00,
2013-08-12 22:55:00,65.7,62.9,29.87,South,180,0.0,0.0,91,0.00,,,-99.99,open2300 version1.11,2013-08-13 02:55:00,
2013-08-12 23:00:00,65.5,62.8,29.87,South,180,0.0,0.0,91,0.00,,,-99.99,open2300 version1.11,2013-08-13 03:00:00,
2013-08-12 23:05:00,65.3,62.6,29.87,South,180,0.0,0.0,91,0.00,,,-99.99,open2300 version1.11,2013-08-13 03:05:00,
2013-08-12 23:10:00,65.1,62.5,29.87,South,180,0.0,0.0,91,0.00,,,-99.99,open2300 version1.11,2013-08-13 03:10:00,
2013-08-12 23:15:00,65.1,62.5,29.87,South,180,0.0,0.0,91,0.00,,,-99.99,open2300 version1.11,2013-08-13 03:15:00,
2013-08-12 23:20:00,65.1,62.5,29.86,South,180,0.0,0.0,91,0.00,,,-99.99,open2300 version1.11,2013-08-13 03:20:00,
2013-08-12 23:25:00,65.1,62.5,29.86,South,180,0.0,0.0,91,0.00,,,-99.99,open2300 version1.11,2013-08-13 03:25:00,
2013-08-12 23:30:00,64.9,62.3,29.86,South,180,0.0,0.0,91,0.00,,,-99.99,open2300 version1.11,2013-08-13 03:30:00,
2013-08-12 23:35:00,64.9,62.3,29.86,South,180,0.0,0.0,91,0.00,,,-99.99,open2300 version1.11,2013-08-13 03:35:00,
2013-08-12 23:40:00,64.9,62.3,29.86,South,180,0.0,0.0,91,0.00,,,-99.99,open2300 version1.11,2013-08-13 03:40:00,
2013-08-12 23:45:00,64.8,62.4,29.86,South,180,0.0,0.0,92,0.00,,,-99.99,open2300 version1.11,2013-08-13 03:45:00,
2013-08-12 23:50:00,64.8,62.4,29.87,South,180,0.0,0.0,92,0.00,,,-99.99,open2300 version1.11,2013-08-13 03:50:00,
2013-08-12 23:53:00,64.8,62.4,29.87,South,180,0.0,0.0,92,0.00,,,-99.99,open2300 version1.11,2013-08-13 03:53:00,
2013-08-12 23:55:00,64.8,62.4,29.87,South,180,0.0,0.0,92,0.00,,,-99.99,open2300 version1.11,2013-08-13 03:55:00,